Location: Palomar Mountain Lodge
(33.3110°N, 116.8495°W)
Time: 04:41:31
(UTC-08:00)

Daily predictions for brighter satellites

Satellite Brightness Start Highest point End
(mag) Time Altitude Azimuth Time Altitude Azimuth Time Altitude Azimuth
Haruka 4.4 04:01:56 39° S 04:02:53 42° SE 04:15:40 10° E
Milstar 3 Cent rocket 4.3 04:11:28 26° SSW 04:12:23 27° SSW 04:21:40 10° SE
CZ-4C R/B 3.8 04:20:27 23° NNE 04:20:27 23° NNE 04:22:39 10° NNE
IDEFIX/ARIANE 42P 4.4 04:18:37 10° NE 04:23:08 29° E 04:27:38 10° SSE
Cosmos 1980 Rocket 2.4 04:24:17 59° S 04:24:17 59° S 04:28:50 10° SSE
Cosmos 2180 Rocket 4.3 04:27:15 74° NW 04:27:41 79° W 04:33:52 10° S
Aurora 2 Rocket 4.3 04:33:31 18° SSE 04:33:31 18° SSE 04:35:18 10° SE
USA 267 3.9 04:28:16 10° NNE 04:33:11 36° NNW 04:33:11 36° NNW
Nadezhda 4 Rocket 3.8 04:41:10 10° SSW 04:47:16 67° W 04:53:21 10° N
Meteor 1-4 Rocket 3.5 04:43:39 10° S 04:46:15 42° SSE 04:46:15 42° SSE
USA 116 3.9 04:46:53 10° SSE 04:51:44 85° WSW 04:52:42 55° NNW
SeaSat 1 3.2 04:48:05 10° NNE 04:51:13 35° NNW 04:51:13 35° NNW
Cosmos 1025 Rocket 4.0 04:50:19 12° N 04:54:06 46° E 04:58:12 10° SSE
CZ-2C R/B 3.6 04:49:56 10° NNE 04:54:23 40° E 04:58:44 10° SSE
Meteor 2-20 Rocket 4.4 04:48:39 10° SSW 04:54:37 56° W 05:00:36 10° N
PAYLOAD A 4.3 04:53:21 10° NNE 04:58:44 72° ESE 05:03:57 10° S
Meteor 2-4 Rocket 3.9 05:01:45 42° WNW 05:02:32 45° W 05:07:52 10° SSW
Cosmos 2285 Rocket 4.0 04:57:08 10° S 05:03:27 81° ESE 05:09:45 10° NNE
OAO 3 Copernicus 4.2 05:02:54 49° WNW 05:04:12 74° N 05:09:14 10° E
Okean 2 3.7 05:01:39 15° N 05:04:58 64° E 05:09:02 10° SSE
USA 234 4.2 04:59:55 10° ESE 05:05:57 41° NE 05:11:04 14° NNW
Cosmos 1536 Rocket 4.5 05:07:44 31° SW 05:07:44 31° SW 05:10:31 10° SSW
SL-16 R/B 2.3 05:02:18 18° NNW 05:06:34 79° ENE 05:12:12 10° SSE
Cosmos 2322 Rocket 2.2 05:06:04 17° NNW 05:10:31 83° ENE 05:16:12 10° SSE
EO 1 Del DPAF 3.3 05:09:47 10° SSE 05:13:35 77° ENE 05:16:31 16° N
COSMO-SKYMED 1 2.4 05:09:16 10° SSE 05:13:35 86° WSW 05:17:13 15° NNW
Cosmos 1500 3.4 05:19:29 10° SSW 05:23:10 45° W 05:26:52 10° N
Landsat 4 4.1 05:22:46 10° S 05:26:17 39° W 05:27:25 31° WNW
NOAA 6 4.3 05:22:41 10° N 05:27:30 43° WNW 05:32:21 10° SW
ATLAS CENTAUR R/B 1.4 05:23:48 10° SSW 05:27:31 68° ESE 05:31:10 10° NE
MTI 4.2 05:25:13 10° S 05:28:13 39° W 05:28:40 37° WNW
Okean 1 Rocket 3.7 05:24:36 10° SW 05:28:31 32° W 05:32:29 10° NNW
Cosmos 389 Rocket 3.2 05:25:05 10° S 05:28:38 57° E 05:32:09 10° NNE
Meteor 1-12 Rocket 4.5 05:24:38 10° S 05:30:19 74° E 05:35:58 10° NNE
Cosmos 1092 Rocket 4.3 05:24:56 10° SSW 05:30:40 42° W 05:36:26 10° N
Okean-O 3.3 05:33:24 10° N 05:37:20 32° WNW 05:41:16 10° SW
Tiangong 1 2.5 05:35:08 10° SSW 05:37:21 29° SE 05:39:36 10° E
MSX 3.8 05:33:17 10° N 05:39:01 81° WNW 05:44:45 10° SSW
Cosmos 1833 4.2 05:34:07 10° SSW 05:39:35 59° WNW 05:45:06 10° NNE
Cosmos 2026 Rocket 4.0 05:35:53 10° SSW 05:42:01 59° W 05:48:16 10° N
Cosmos 1271 Rocket 3.1 05:38:24 10° S 05:42:07 65° E 05:45:50 10° NNE
DMSP B5D1-3 4.5 05:38:33 10° S 05:43:40 70° WSW 05:48:49 10° NNW
Meteor 2-11 Rocket 4.5 05:38:11 10° NNW 05:44:08 59° W 05:50:03 10° S
Cosmos 1680 Rocket 3.9 05:39:43 10° SW 05:44:33 39° WNW 05:49:25 10° N
GEOS 3 Rocket 4.0 05:41:34 10° NE 05:46:57 72° ESE 05:52:14 10° SSW
GPS 2-05 Rocket1 2.7 05:48:09 17° W 05:50:40 72° N 05:54:02 10° ENE
Cosmos 1892 Rocket 3.6 05:48:12 10° N 05:52:34 85° E 05:56:53 10° S
Cosmos 1655 Rocket 4.0 05:47:09 10° SSW 05:53:20 68° W 05:59:36 10° N
Cosmos 1666 2.6 05:51:22 10° SSW 05:55:10 71° W 05:58:59 10° N
Cosmos 1553 Rocket 4.0 05:51:57 10° N 05:58:10 88° E 06:04:16 10° S
IDEFIX/ARIANE 42P 3.4 05:58:15 10° NNW 06:02:35 27° WNW 06:06:55 10° SW
Cosmos 2360 Rocket 2.2 05:59:44 10° NNW 06:05:25 84° WSW 06:11:04 10° SSE
Cosmos 2333 Rocket 4.4 06:02:37 10° N 06:07:00 22° ENE 06:11:20 10° ESE
Cosmos 1371 Rocket 4.1 06:02:16 10° NNW 06:07:29 80° ENE 06:12:37 10° SSE
COSMOS 2428 3.9 06:04:56 10° N 06:10:24 44° ENE 06:15:49 10° SE
Cosmos 1066 Rocket 4.4 06:05:35 10° NNW 06:10:41 46° W 06:15:53 10° SSW
Cosmos 2219 Rocket 4.0 06:08:31 10° N 06:13:23 29° ENE 06:18:13 10° ESE
AQUARIUS 4.1 06:09:47 10° N 06:14:18 80° WNW 06:18:46 10° SSW
Thor Agena Rocket 3.5 06:10:13 10° S 06:15:13 69° WSW 06:20:17 10° NNW
CZ-4 R/B 1.5 06:14:43 10° NNE 06:18:57 89° E 06:23:11 10° SSW
